GW2978 Weather Reports


time (UTC)temp
F
wind
direction
speed
knots
gust
knots
rain 1hr
in
rain 24hr
in
rain mn
in
humidity
%
barometer
mb
20260508125511 54 194 0.0 1.7 0.00 0.00 0.00 87 1016.8
20260508125009 53 216 1.7 1.7 0.00 0.00 0.00 89 1016.8
20260508124507 53 212 1.7 1.7 0.00 0.00 0.00 89 1016.8
20260508124004 53 230 0.0 0.9 0.00 0.00 0.00 89 1016.8
20260508123502 53 226 1.7 2.6 0.00 0.00 0.00 90 1016.8
20260508122957 53 182 0.0 0.0 0.00 0.00 0.00 91 1016.7
20260508122455 53 190 0.0 0.0 0.00 0.00 0.00 92 1016.6
20260508121951 52 183 0.0 0.0 0.00 0.00 0.00 92 1016.5
20260508121450 51 186 0.0 0.9 0.00 0.00 0.00 92 1016.6
20260508120947 50 188 0.0 0.0 0.00 0.00 0.00 93 1016.8
20260508120445 48 201 0.0 0.0 0.00 0.00 0.00 93 1016.4
20260508115943 47 185 1.7 1.7 0.00 0.00 0.00 93 1016.4
20260508115440 47 192 0.9 1.7 0.00 0.00 0.00 93 1016.2
20260508114936 47 185 0.0 0.0 0.00 0.00 0.00 94 1016.3
20260508114434 46 185 0.0 0.0 0.00 0.00 0.00 94 1016.0
20260508113930 45 170 0.0 0.9 0.00 0.00 0.00 94 1016.1
20260508113428 45 191 0.9 0.9 0.00 0.00 0.00 94 1016.0
20260508112925 44 179 0.0 0.0 0.00 0.00 0.00 94 1015.9
20260508112422 43 171 0.0 1.7 0.00 0.00 0.00 94 1015.8
20260508111918 41 161 0.0 0.0 0.00 0.00 0.00 94 1015.7
20260508111415 41 222 0.9 1.7 0.00 0.00 0.00 94 1015.7
20260508110913 40 179 0.0 0.0 0.00 0.00 0.00 94 1015.8
20260508110410 39 179 0.0 0.0 0.00 0.00 0.00 93 1015.8
20260508105910 39 176 0.0 0.0 0.00 0.00 0.00 93 1015.6
20260508105406 39 145 0.0 0.0 0.00 0.00 0.00 93 1015.5
20260508104904 39 150 0.9 0.9 0.00 0.00 0.00 93 1015.5
20260508104401 39 180 0.9 0.9 0.00 0.00 0.00 93 1015.1
20260508103858 39 192 0.0 0.0 0.00 0.00 0.00 93 1015.2
20260508103355 40 192 0.0 0.9 0.00 0.00 0.00 93 1014.9
20260508102852 40 178 0.0 0.9 0.00 0.00 0.00 93 1014.9
20260508102350 41 39 1.7 1.7 0.00 0.00 0.00 93 1014.9
20260508101847 40 171 0.0 0.9 0.00 0.00 0.00 92 1014.7
20260508101344 41 198 0.0 0.9 0.00 0.00 0.00 93 1014.8
20260508100842 42 120 0.9 1.7 0.00 0.00 0.00 92 1014.8
20260508100341 41 103 2.6 2.6 0.00 0.00 0.00 92 1014.6
20260508095835 41 189 0.0 0.9 0.00 0.00 0.00 92 1014.6
20260508095333 41 78 1.7 3.5 0.00 0.00 0.00 92 1014.5
20260508094831 40 109 1.7 1.7 0.00 0.00 0.00 92 1014.5
20260508094327 41 189 0.9 0.9 0.00 0.00 0.00 92 1014.5
20260508093825 41 136 1.7 2.6 0.00 0.00 0.00 92 1014.6
20260508093322 41 179 0.9 0.9 0.00 0.00 0.00 91 1014.5
20260508092820 41 277 1.7 2.6 0.00 0.00 0.00 91 1014.5
20260508092317 41 178 0.0 0.0 0.00 0.00 0.00 91 1014.3
20260508091815 41 180 0.0 1.7 0.00 0.00 0.00 91 1014.1
20260508091311 41 186 0.0 0.9 0.00 0.00 0.00 91 1014.1
20260508090809 42 186 0.0 0.9 0.00 0.00 0.00 90 1014.3
20260508090308 43 212 0.9 1.7 0.00 0.00 0.00 90 1014.0
20260508085803 43 150 0.9 2.6 0.00 0.00 0.00 90 1014.3
20260508085300 42 57 2.6 2.6 0.00 0.00 0.00 90 1014.0
20260508084756 42 146 0.9 0.9 0.00 0.00 0.00 89 1014.0
20260508084254 43 169 0.0 1.7 0.00 0.00 0.00 89 1014.0
20260508083751 42 106 1.7 1.7 0.00 0.00 0.00 88 1014.3
20260508083249 43 136 0.9 0.9 0.00 0.00 0.00 88 1014.3
20260508082748 42 161 0.9 0.9 0.00 0.00 0.00 87 1014.0
20260508082246 43 154 0.0 0.9 0.00 0.00 0.00 87 1014.0
20260508081743 43 189 0.0 0.0 0.00 0.00 0.00 86 1013.9
20260508081240 43 190 0.0 0.0 0.00 0.00 0.00 86 1013.6
20260508080737 44 184 0.0 0.0 0.00 0.00 0.00 86 1013.7
20260508080235 44 189 0.0 0.0 0.00 0.00 0.00 85 1013.5
20260508075731 45 191 0.0 0.9 0.00 0.00 0.00 85 1013.7
20260508075228 46 147 0.9 1.7 0.00 0.00 0.00 85 1013.5
20260508074726 46 164 0.9 0.9 0.00 0.00 0.00 85 1013.7
20260508074223 47 155 0.9 1.7 0.00 0.00 0.00 84 1013.6
20260508073720 47 140 1.7 1.7 0.00 0.00 0.00 84 1013.5
20260508073218 48 128 0.9 1.7 0.00 0.00 0.00 84 1013.5
20260508072714 48 157 0.9 0.9 0.00 0.00 0.00 84 1013.4
20260508072211 49 137 1.7 2.6 0.00 0.00 0.00 84 1013.3
20260508071708 50 125 2.6 3.5 0.00 0.00 0.00 84 1013.4
20260508071206 49 342 3.5 3.5 0.00 0.00 0.00 85 1013.4
20260508070703 50 162 0.0 0.9 0.00 0.00 0.00 85 1013.4
20260508070202 49 66 0.9 0.9 0.00 0.00 0.00 86 1013.6
20260508065659 49 105 0.9 1.7 0.00 0.00 0.00 87 1013.5
20260508065157 49 209 1.7 5.2 0.00 0.00 0.00 88 1013.3
20260508064654 49 187 0.0 1.7 0.00 0.00 0.00 89 1013.4
20260508064152 48 152 0.9 1.7 0.00 0.00 0.00 89 1013.2
20260508063649 47 161 0.9 2.6 0.00 0.00 0.00 90 1013.4
20260508063147 48 162 0.9 2.6 0.00 0.00 0.00 90 1013.4
20260508062644 48 144 0.9 1.7 0.00 0.00 0.00 90 1013.4
20260508062141 48 121 1.7 2.6 0.00 0.00 0.00 90 1013.4
20260508061638 48 140 0.9 0.9 0.00 0.00 0.00 91 1013.3
20260508061136 48 190 0.9 1.7 0.00 0.00 0.00 91 1013.6
20260508060632 46 136 0.9 1.7 0.00 0.00 0.00 91 1013.5
20260508060130 46 183 0.0 0.9 0.00 0.00 0.00 91 1013.7
20260508055625 45 130 0.9 1.7 0.00 0.00 0.00 91 1013.6
20260508055122 44 56 1.7 1.7 0.00 0.00 0.00 91 1013.5
20260508054618 45 189 0.0 0.9 0.00 0.00 0.00 91 1013.6
20260508054116 45 187 0.0 0.9 0.00 0.00 0.00 91 1013.5
20260508053613 45 145 0.0 0.9 0.00 0.00 0.00 90 1013.6
20260508053111 45 153 0.9 1.7 0.00 0.00 0.00 90 1013.5
20260508052608 46 167 0.9 0.9 0.00 0.00 0.00 90 1013.4
20260508052105 46 175 0.0 0.0 0.00 0.00 0.00 90 1013.5
20260508051601 46 172 0.0 0.9 0.00 0.00 0.00 90 1013.4
20260508051056 47 83 1.7 2.6 0.00 0.00 0.00 90 1013.4
20260508050553 47 94 1.7 1.7 0.00 0.00 0.00 90 1013.4
20260508050050 48 195 0.0 2.6 0.00 0.00 0.00 89 1013.2
20260508045546 48 128 1.7 2.6 0.00 0.00 0.00 89 1013.0
20260508045044 48 135 1.7 3.5 0.00 0.00 0.00 89 1013.1
20260508044541 48 112 1.7 2.6 0.00 0.00 0.00 89 1013.1
20260508044037 47 57 2.6 2.6 0.00 0.00 0.00 89 1013.3
20260508043534 47 167 0.0 0.9 0.00 0.00 0.00 89 1013.3
20260508043032 48 142 0.0 0.9 0.00 0.00 0.00 89 1013.0
20260508042528 48 141 0.9 1.7 0.00 0.00 0.00 89 1012.9
20260508042025 48 170 0.9 1.7 0.00 0.00 0.00 89 1013.1
20260508041521 48 166 0.9 0.9 0.00 0.00 0.00 89 1013.0
20260508041018 48 110 0.9 1.7 0.00 0.00 0.00 88 1012.8
20260508040515 48 32 1.7 1.7 0.00 0.00 0.00 88 1012.8
20260508040013 48 207 0.0 2.6 0.00 0.14 0.14 88 1012.7
20260508035510 48 174 0.0 0.0 0.00 0.14 0.14 88 1013.0
20260508035006 48 160 0.9 0.9 0.00 0.14 0.14 88 1012.8
20260508034504 48 156 0.9 1.7 0.00 0.14 0.14 88 1012.6
20260508034001 48 144 2.6 2.6 0.00 0.14 0.14 88 1012.7
20260508033458 48 182 0.0 0.0 0.00 0.14 0.14 88 1012.7
20260508032955 48 158 0.9 0.9 0.00 0.14 0.14 88 1012.4
20260508032453 48 196 0.0 0.0 0.00 0.14 0.14 87 1012.6
20260508031949 47 164 0.9 1.7 0.00 0.14 0.14 87 1012.4
20260508031448 48 190 0.0 0.9 0.00 0.14 0.14 87 1012.6
20260508030942 48 159 0.9 1.7 0.00 0.14 0.14 87 1012.6
20260508030440 49 37 0.9 2.6 0.00 0.14 0.14 87 1012.4
20260508025937 50 168 0.0 1.7 0.00 0.14 0.14 87 1012.4
20260508025433 49 137 1.7 1.7 0.00 0.14 0.14 87 1012.2
20260508024931 50 106 0.9 3.5 0.00 0.14 0.14 88 1012.4
20260508024427 48 177 1.7 2.6 0.00 0.14 0.14 87 1012.4
20260508023924 48 128 1.7 2.6 0.00 0.14 0.14 87 1012.4
20260508023421 49 152 1.7 2.6 0.00 0.14 0.14 87 1012.2
20260508022918 49 190 0.0 0.9 0.00 0.14 0.14 87 1012.2
20260508022413 49 196 0.0 2.6 0.00 0.14 0.14 87 1012.1
20260508021910 49 154 1.7 2.6 0.00 0.14 0.14 86 1012.0
20260508021406 49 140 1.7 2.6 0.00 0.14 0.14 86 1011.8
20260508020902 49 114 1.7 1.7 0.00 0.14 0.14 85 1011.8
20260508020401 49 181 0.0 0.9 0.00 0.14 0.14 85 1011.8
20260508015857 49 126 1.7 1.7 0.00 0.14 0.14 84 1011.8
20260508015355 50 128 0.0 1.7 0.00 0.14 0.14 84 1011.8
20260508014851 50 124 1.7 1.7 0.00 0.14 0.14 84 1011.8
20260508014349 50 165 0.9 2.6 0.00 0.14 0.14 83 1011.5
20260508013843 50 126 1.7 1.7 0.00 0.14 0.14 82 1011.4
20260508013340 50 159 0.9 2.6 0.00 0.14 0.14 81 1011.4
20260508012837 50 182 0.0 0.0 0.00 0.14 0.14 80 1011.4
20260508012335 51 197 0.0 0.9 0.00 0.14 0.14 79 1011.1
20260508011832 51 196 0.0 0.9 0.00 0.14 0.14 79 1011.0
20260508011330 52 184 0.0 0.9 0.00 0.14 0.14 78 1011.0
20260508010827 52 180 0.0 0.9 0.00 0.14 0.14 77 1010.8
20260508010325 53 184 0.0 0.9 0.00 0.14 0.14 76 1010.9
20260508005822 53 184 0.0 0.0 0.00 0.14 0.14 75 1010.7
20260508005318 53 183 0.0 0.9 0.00 0.14 0.14 74 1010.6
20260508004815 55 97 1.7 1.7 0.00 0.14 0.14 73 1010.8
20260508004311 55 174 0.9 2.6 0.00 0.14 0.14 72 1010.7
20260508003807 56 157 0.9 2.6 0.00 0.14 0.14 71 1010.8
20260508003305 56 174 0.0 0.9 0.00 0.14 0.14 71 1010.8
20260508002801 56 148 0.0 0.9 0.00 0.14 0.14 71 1010.7
20260508002258 57 334 0.0 2.6 0.00 0.14 0.14 72 1010.7
20260508001754 57 210 0.0 0.9 0.00 0.14 0.14 72 1010.5
20260508001250 57 198 0.9 3.5 0.00 0.14 0.14 73 1010.6
20260508000746 57 205 3.5 3.5 0.00 0.14 0.14 73 1010.5
20260508000244 58 228 1.7 1.7 0.00 0.14 0.14 73 1010.7
20260507235739 58 199 0.0 0.0 0.00 0.14 0.14 73 1010.7
20260507235238 59 204 0.0 0.0 0.00 0.14 0.14 72 1010.5
20260507234734 59 199 0.0 0.9 0.00 0.14 0.14 72 1010.4
20260507234231 60 91 1.7 2.6 0.00 0.14 0.14 71 1010.6
20260507233727 60 196 0.0 2.6 0.00 0.14 0.14 71 1010.5
20260507233225 60 321 0.9 1.7 0.00 0.14 0.14 71 1010.5
20260507232722 61 236 3.5 6.1 0.00 0.14 0.14 70 1010.4
20260507232219 61 223 2.6 5.2 0.00 0.14 0.14 71 1010.3
20260507231716 61 293 6.1 8.7 0.00 0.14 0.14 71 1010.1
20260507231213 62 8 3.5 12.2 0.00 0.14 0.14 72 1010.1
20260507230709 62 229 7.0 11.3 0.00 0.14 0.14 74 1010.0
20260507230207 61 173 2.6 3.5 0.00 0.14 0.14 75 1010.0
20260507225706 63 165 0.9 7.0 0.00 0.14 0.14 75 1010.2
20260507225203 63 164 1.7 5.2 0.00 0.14 0.14 77 1009.9
20260507224659 63 342 4.3 6.1 0.00 0.14 0.14 78 1009.9
20260507224155 62 332 2.6 6.1 0.00 0.14 0.14 79 1009.9
20260507223652 62 231 5.2 7.0 0.00 0.14 0.14 80 1009.6
20260507223149 62 287 0.9 5.2 0.00 0.14 0.14 82 1009.7
20260507222646 61 239 0.9 1.7 0.00 0.14 0.14 84 1009.6
20260507222142 61 193 2.6 3.5 0.00 0.14 0.14 85 1009.5
20260507221638 61 138 0.9 5.2 0.00 0.14 0.14 86 1009.5
20260507221134 61 319 1.7 6.1 0.00 0.14 0.14 87 1009.3
20260507220632 61 309 3.5 6.1 0.00 0.14 0.14 88 1009.3
20260507220130 61 313 4.3 9.6 0.00 0.14 0.14 89 1009.3
20260507215625 61 228 4.3 6.1 0.00 0.14 0.14 90 1009.4
20260507215123 62 210 6.1 8.7 0.00 0.14 0.14 91 1009.2
20260507214620 62 171 0.0 0.0 0.00 0.14 0.14 91 1008.7
20260507214117 62 179 0.0 1.7 0.00 0.14 0.14 91 1008.8
20260507213613 62 184 0.0 2.6 0.00 0.14 0.14 91 1008.8
20260507213110 62 163 1.7 6.1 0.00 0.14 0.14 91 1008.5
20260507212606 63 166 1.7 2.6 0.00 0.14 0.14 91 1008.3
20260507212103 63 136 1.7 2.6 0.00 0.14 0.14 91 1008.4
20260507211600 63 132 1.7 1.7 0.00 0.14 0.14 92 1008.3
20260507211055 63 150 4.3 5.2 0.00 0.14 0.14 91 1008.4
20260507210553 63 100 2.6 5.2 0.00 0.14 0.14 92 1008.2
20260507210050 63 95 3.5 7.8 0.00 0.14 0.14 92 1008.2
20260507205546 64 157 3.5 6.1 0.00 0.14 0.14 92 1008.0
20260507205043 64 86 1.7 3.5 0.00 0.14 0.14 92 1007.8
20260507204539 63 168 3.5 7.0 0.00 0.14 0.14 93 1008.0
20260507204037 63 182 1.7 3.5 0.00 0.14 0.14 93 1008.0
20260507203535 63 117 3.5 5.2 0.00 0.14 0.14 93 1007.9
20260507203032 62 106 4.3 6.1 0.00 0.14 0.14 93 1007.8
20260507202527 62 109 5.2 7.0 0.00 0.14 0.14 93 1007.8
20260507202024 63 129 3.5 6.1 0.00 0.14 0.14 93 1007.7
20260507201520 62 168 6.1 7.0 0.00 0.14 0.14 93 1007.6
20260507201016 63 166 4.3 7.0 0.00 0.14 0.14 93 1007.8
20260507200511 63 128 2.6 6.1 0.00 0.14 0.14 93 1007.7
20260507200008 64 125 3.5 6.1 0.00 0.14 0.14 93 1007.6
20260507195505 65 90 5.2 6.1 0.00 0.14 0.14 93 1007.5
20260507195003 64 94 3.5 7.8 0.00 0.14 0.14 94 1007.6
20260507194459 64 182 4.3 7.8 0.00 0.14 0.14 94 1007.6
20260507193955 63 108 3.5 7.8 0.00 0.14 0.14 94 1007.8
20260507193452 63 91 6.1 7.8 0.00 0.14 0.14 95 1007.5
20260507192949 63 53 5.2 8.7 0.00 0.14 0.14 95 1007.5
20260507192444 63 89 5.2 7.8 0.00 0.14 0.14 95 1007.6
20260507191942 62 89 4.3 7.0 0.00 0.14 0.14 95 1007.4
20260507191438 61 78 4.3 7.0 0.00 0.14 0.14 95 1007.8
20260507190935 61 69 3.5 9.6 0.00 0.14 0.14 95 1007.6
20260507190432 61 65 7.0 7.8 0.00 0.14 0.14 96 1007.9
20260507185931 61 102 3.5 8.7 0.00 0.14 0.14 95 1008.1
20260507185428 61 124 3.5 7.8 0.07 0.14 0.14 95 1007.9
20260507184924 61 127 3.5 6.1 0.07 0.14 0.14 95 1008.3
20260507184422 62 154 3.5 5.2 0.00 0.13 0.13 95 1008.1
20260507183920 62 167 2.6 2.6 0.00 0.13 0.13 96 1008.1
20260507183416 62 80 3.5 5.2 0.00 0.13 0.13 96 1008.0
20260507182914 62 108 2.6 7.0 0.00 0.13 0.13 96 1008.1
20260507182409 62 69 3.5 7.0 0.00 0.13 0.13 96 1008.0
20260507181906 63 4 4.3 7.0 0.00 0.13 0.13 96 1007.9
20260507181402 63 109 1.7 7.0 0.00 0.13 0.13 96 1007.8
20260507180859 63 60 5.2 8.7 0.00 0.13 0.13 96 1007.4
20260507180355 63 45 5.2 7.8 0.00 0.13 0.13 96 1007.7
20260507175852 63 94 6.1 7.8 0.12 0.13 0.13 96 1007.8
20260507175349 62 92 1.7 7.8 0.24 0.13 0.13 95 1007.9
20260507174846 64 48 1.7 2.6 0.35 0.11 0.11 95 1008.2
20260507174343 64 200 0.9 1.7 0.24 0.09 0.09 95 1007.9
20260507173841 65 109 0.9 7.0 0.00 0.05 0.05 95 1008.0
20260507173338 65 23 4.3 5.2 0.00 0.05 0.05 96 1007.7
20260507172834 65 51 1.7 2.6 0.00 0.05 0.05 96 1008.1
20260507172331 65 106 0.9 1.7 0.00 0.05 0.05 96 1008.0
20260507171827 63 191 0.9 2.6 0.07 0.05 0.05 96 1007.9
20260507171324 63 198 0.0 1.7 0.07 0.05 0.05 97 1008.2
20260507170821 63 157 0.9 3.5 0.00 0.04 0.04 96 1007.9
20260507170317 63 349 1.7 3.5 0.00 0.04 0.04 97 1008.2
20260507165813 64 28 3.5 7.8 0.00 0.04 0.04 97 1008.0
20260507165309 65 355 6.1 7.8 0.00 0.04 0.04 97 1008.1
20260507164805 65 81 4.3 6.1 0.00 0.04 0.04 97 1008.2
20260507164303 66 129 2.6 3.5 0.00 0.04 0.04 97 1008.0
20260507163800 66 82 3.5 5.2 0.00 0.04 0.04 98 1008.1
20260507163257 66 100 1.7 3.5 0.00 0.04 0.04 98 1008.0
20260507162753 66 359 0.9 5.2 0.00 0.04 0.04 98 1008.1
20260507162249 66 80 3.5 7.0 0.00 0.04 0.04 98 1008.2
20260507161747 67 50 4.3 6.1 0.00 0.04 0.04 99 1008.0
20260507161243 67 62 3.5 3.5 0.00 0.04 0.04 99 1008.0
20260507160738 68 59 4.3 6.1 0.00 0.04 0.04 99 1007.8
20260507160235 67 168 0.9 2.6 0.00 0.04 0.04 99 1008.1
20260507155731 67 144 3.5 5.2 0.00 0.04 0.04 99 1007.9
20260507155227 68 56 3.5 5.2 0.00 0.04 0.04 99 1008.0
20260507154724 68 120 3.5 3.5 0.00 0.04 0.04 99 1008.1
20260507154222 67 83 3.5 6.1 0.00 0.04 0.04 99 1008.1
20260507153718 68 137 1.7 3.5 0.00 0.04 0.04 99 1008.1
20260507153215 67 190 0.9 3.5 0.00 0.04 0.04 99 1008.4
20260507152711 67 167 0.9 5.2 0.00 0.04 0.04 99 1008.4
20260507152207 67 75 3.5 3.5 0.00 0.04 0.04 99 1008.5
20260507151704 67 104 2.6 2.6 0.00 0.04 0.04 99 1008.2
20260507151200 68 191 0.0 5.2 0.00 0.04 0.04 99 1008.2
20260507150657 68 205 0.9 1.7 0.00 0.04 0.04 99 1008.4
20260507150154 66 187 0.9 2.6 0.00 0.04 0.04 99 1008.3
20260507145649 66 189 0.0 1.7 0.00 0.04 0.04 99 1008.5
20260507145147 66 188 1.7 1.7 0.00 0.04 0.04 99 1008.5
20260507144643 66 185 0.0 2.6 0.00 0.04 0.04 99 1008.6
20260507144142 66 166 1.7 1.7 0.00 0.04 0.04 99 1008.4
20260507143638 66 192 0.0 0.0 0.00 0.04 0.04 99 1008.7
20260507143135 66 200 0.0 0.9 0.00 0.04 0.04 99 1008.6
20260507142630 65 198 0.0 0.0 0.00 0.04 0.04 99 1008.7
20260507142128 65 191 0.0 0.0 0.00 0.04 0.04 99 1008.8
20260507141624 65 196 0.0 0.9 0.00 0.04 0.04 99 1009.0
20260507141121 65 200 0.0 0.9 0.00 0.04 0.04 99 1008.5
20260507140617 65 231 1.7 2.6 0.00 0.04 0.04 99 1008.6
20260507140115 65 219 0.9 2.6 0.00 0.04 0.04 99 1008.8
20260507135612 64 226 0.0 0.9 0.00 0.04 0.04 99 1008.3
20260507135109 64 216 0.9 1.7 0.00 0.04 0.04 99 1008.4
20260507134605 64 215 0.9 1.7 0.00 0.04 0.04 99 1008.5
20260507134101 64 221 0.9 3.5 0.00 0.04 0.04 99 1008.5
20260507133557 64 203 0.0 1.7 0.00 0.04 0.04 99 1008.2
20260507133055 63 202 0.0 0.9 0.00 0.04 0.04 99 1008.3
20260507132552 63 209 0.9 0.9 0.00 0.04 0.04 99 1008.6
20260507132048 64 203 0.0 0.0 0.00 0.04 0.04 99 1008.6
20260507131545 63 196 0.0 1.7 0.00 0.04 0.04 99 1008.6
20260507131043 63 308 1.7 2.6 0.00 0.04 0.04 99 1008.7
20260507130539 63 315 1.7 1.7 0.00 0.04 0.04 99 1008.3
20260507130038 63 203 0.0 1.7 0.00 0.04 0.04 99 1008.6